Weather History for KMQE - February, 2012

Change the Weather History Date:

Sunday, February 19, 2012

  Actual Average (KBOS) Record (KBOS)
Temperature  
Mean Temperature 34 °F 32 °F  
Max Temperature 43 °F 40 °F 65 °F (1961)
Min Temperature 26 °F 25 °F 4 °F (1936)
Degree Days  
Heating Degree Days 30 33  
Month to date heating degree days 647  
Since 1 July heating degree days 3757  
Cooling Degree Days 0 0  
Month to date cooling degree days 0  
Year to date cooling degree days 0  
Moisture  
Dew Point 19 °F    
Average Humidity 57    
Maximum Humidity 85    
Minimum Humidity 32    
Precipitation  
Precipitation 0.00 in 0.12 in 2.40 in (1972)
Month to date precipitation 2.14  
Year to date precipitation 5.50  
Sea Level Pressure  
Sea Level Pressure 30.02 in    
Wind  
Wind Speed 10 mph (NNW)    
Max Wind Speed 13 mph    
Max Gust Speed 22 mph    
T = Trace of Precipitation, MM = Missing Value Source: NWS Daily Summary

Daily Weather History Graph

Daily Weather History Graph

Search for Another Location

Airport or City:

Trip Planner

Search our weather history database for the weather conditions in past years. The results will help you decide how hot, cold, wet, or windy it might be!

Date:

Astronomy

Feb. 19, 2012 Rise Set
Actual Time 6:35 AM EST 5:21 PM EST
Civil Twilight 6:07 AM EST 5:50 PM EST
Nautical Twilight 5:34 AM EST 6:22 PM EST
Astronomical Twilight 5:02 AM EST 6:55 PM EST
Moon 4:56 AM EST (2/19) 3:17 PM EST (2/19)
Length of Visible Light 11h 42m
Length of Day
10h 45m
Waning Crescent, 5% of the Moon is Illuminated
Feb 19
Waning Crescent
Feb 21
New
Feb 29
First Quarter
Mar 8
Full
Mar 14
Last Quarter

Hourly Weather History & Observations

Time (EST) Temp. Windchill Dew Point Humidity Pressure Visibility Wind Dir Wind Speed Gust Speed Precip Events Conditions
12:54 AM 32.0 °F 23.0 °F 28.0 °F 85% 29.99 in - NW 11.5 mph - N/A   Unknown
1:54 AM 30.9 °F 21.2 °F 25.0 °F 79% 30.01 in - NW 12.7 mph 20.7 mph N/A   Unknown
2:54 AM 28.9 °F 20.4 °F 24.1 °F 82% 30.00 in - NNW 9.2 mph - N/A   Unknown
3:54 AM 28.9 °F 19.2 °F 23.0 °F 78% 30.01 in - NNW 11.5 mph - N/A   Unknown
4:54 AM 28.0 °F 18.6 °F 21.9 °F 78% 30.02 in - NNW 10.4 mph - N/A   Unknown
5:54 AM 26.1 °F 16.8 °F 21.0 °F 81% 30.05 in - NW 9.2 mph - N/A   Unknown
6:54 AM 26.1 °F 17.6 °F 21.0 °F 81% 30.07 in - WNW 8.1 mph - N/A   Unknown
7:54 AM 28.9 °F 19.2 °F 19.0 °F 67% 30.07 in - NNW 11.5 mph 21.9 mph N/A   Unknown
8:54 AM 32.0 °F 23.0 °F 18.0 °F 56% 30.06 in - NW 11.5 mph 20.7 mph N/A   Unknown
9:54 AM 35.1 °F 26.4 °F 18.0 °F 50% 30.06 in - NW 12.7 mph - N/A   Unknown
10:54 AM 37.0 °F 31.0 °F 17.1 °F 44% 30.06 in - NW 8.1 mph - N/A   Unknown
11:54 AM 39.0 °F 32.8 °F 16.0 °F 39% 30.05 in - NNW 9.2 mph - N/A   Unknown
12:54 PM 42.1 °F 37.1 °F 16.0 °F 35% 30.02 in - WNW 8.1 mph - N/A   Unknown
1:54 PM 41.0 °F 39.0 °F 15.1 °F 35% 30.01 in - Variable 3.5 mph - N/A   Unknown
2:54 PM 43.0 °F 37.2 °F 15.1 °F 32% 30.00 in - WNW 10.4 mph - N/A   Unknown
3:54 PM 42.1 °F 36.6 °F 15.1 °F 34% 29.98 in - WNW 9.2 mph - N/A   Unknown
4:54 PM 39.9 °F 35.1 °F 14.0 °F 35% 29.99 in - WNW 6.9 mph - N/A   Unknown
5:54 PM 36.0 °F 30.3 °F 14.0 °F 41% 30.00 in - NNW 6.9 mph - N/A   Unknown
6:54 PM 34.0 °F 28.0 °F 19.0 °F 54% 30.02 in - SE 6.9 mph - N/A   Unknown
7:54 PM 33.1 °F 28.7 °F 21.0 °F 61% 30.02 in - ESE 4.6 mph - N/A   Unknown
8:54 PM 32.0 °F 24.8 °F 21.0 °F 64% 30.04 in - NE 8.1 mph - N/A   Unknown
9:54 PM 30.9 °F 21.7 °F 17.1 °F 57% 30.01 in - NNE 11.5 mph - N/A   Unknown
10:54 PM 28.9 °F 20.4 °F 14.0 °F 54% 30.01 in - North 9.2 mph - N/A   Unknown
11:54 PM 28.0 °F 19.3 °F 14.0 °F 56% 30.02 in - North 9.2 mph - N/A   Unknown